Погода в Ефремове

Погода в Ефремове : погода сейчас, прогноз погоды и архив. Всё, что Вы хотите узнать о погоде в Ефремове!

Поиск расширенной информации на нашем сайте:

Другие новости

Новости СМИ2

Главная страница сайта

Новости сайта

02.10.2013

Напоминаем, что на нашем новом сайте вы можете получить высокодетализированные прогнозы погоды по пунктам России, СНГ и мира (включающие важные для авиации метеовеличины, такие как направление и скорость ветра, видимость, явления погоды, количество и форма облачности, нижняя и верхняя граница облачности), а также ознакомиться с разнообразными материалами по авиационной метеорологии и подборкой полезных ссылок на эту тему.

Сайт Метеоцентр.Азия посвящён разработке технологий оптимизации авиаметеорологического обслуживания, включая проектирование и перспективное создание нескольких автоматизированных авиаметеорологических систем:
- система выпуска высокодетальных прогностических карт явлений погоды для нижнего воздушного пространства по России и ближнему зарубежью;
- система верификации прогнозов TAF (выпускаемых синоптиками официальных АМСГ РФ и ближнего зарубежья) и AUTOTAF (выпускаемых сайтом Метеоцентр.Азия) - выявление ошибок, онлайн-сопоставление с фактической погодой METAR, автоматическое внесение коррективов в прогнозы при резком отклонении фактической погоды от прогноза, подсчёт оправдываемости прогнозов по элементам и в целом;
- система обработки, анализа и отображения авиаметеорологической информации для применения провайдерами метеорологической информации.

Рекомендуем: купить семена расторопши

Погода в Ефремове - сегодня

Время (UTC), дата Ветер
(°,м/с) 
Видим.   Явления Облачность Т
(°С)
Тd
(°С)
f(%) Тe
(°С)
Pmin
(гПа)
dP
(гПа)
Po
(мм)
O2
(г/м3)
Тmin Tmax R s Состояние
почвы
15 25.02.17 250 (З) 3{10}  10 км    ясно 
-2.4 -7.5 68 -4  1004.7  733  299         
18 25.02.17 260 (З) 4{11}  10 км  {снег}  ясно 
-4 -5.6 89 -7  1006.4  1.5  734  301    +0.1     
21 25.02.17 260 (З) 10 км    ясно 
-3.9 -8.4 71 -8  1007.2  0.8  735  301           
00 26.02.17 250 (З) 10 км    ясно 
-4.8 -7 85 -8  1007.9  0.6  735  302           
03 26.02.17 260 (З) 4{10}  10 км    10/0 средняя 
[As op]
-4 -6.1 85 -7  1009  1.2  736  302  -4.9         
06 26.02.17 300 (СЗ) 4{12}  10 км  в посл. час ливневой снег  8/6 300 м кучево-дожд., средняя 
[Cb cap|Ac trans]
-4.4 -7.3 80 -8  1012.5  3.3  739  303  -4.9    0.3  34  неравномерный
сухой снег
100% 
09 26.02.17 270 (З) 5{12}  10 км    1/0 средняя 
[Ac trans]
-2.7 -9.5 59 -6  1014.2  1.9  740  302           
12 26.02.17 250 (З) 4{11}  10 км    8/0 верхняя 
[Ci fib]
-1.7 -7.7 64 -4  1013.8  -0.3  740  301           
15 26.02.17 240 (ЮЗ) 4-10{10}  10 км    9/0 верхняя 
[Ci fib]
-2.1 -6.9 70 -5  1012.7  -1.1  739  301      0.3     
18 26.02.17 230 (ЮЗ) 4{10}  10 км    9/0 средняя 
[Ac trans]
-1.9 -5.5 76 -5  1011.6  -1.1  738  300    -1.5       
21 26.02.17 210 (ЮЗ) 4{11}  4000 м  слаб. снег  10/0 средняя 
[As op]
-2.1 -3.4 91 -5  1009.5  -2  737  299           
00 27.02.17 240 (ЮЗ) 5{11}  4000 м  слаб. снег  10/6 300 м средняя 
[Frnb|As op]
-0.9 -1.5 96 -4  1007.5  -1.9  735  297           
03 27.02.17 240 (ЮЗ) 10 км  {снег}  10/0 средняя 
[As op]
-0.1 -0.2 99 -3  1006.4  -1  734  296  -2.6    0.8     
06 27.02.17 250 (З) 4{10}  10 км  {снег}  10/10 300 м 
[St]
+0.9 -0.3 92 -1  1006.3  734  295  -2.6    0.8  34  равномерный
сухой снег
100% 
09 27.02.17 250 (З) 5{10}  10 км  в посл. час снег  10/10 300 м 
[St]
+1.7 +0.4 91 -1  1006.7  0.5  735  294           
12 27.02.17 260 (З) 10 км  {снег}  10/10 300 м 
[St]
+2.4 -0.3 82 1007.9  1.3  736  294           
15 27.02.17 260 (З) 10 км    10/10 300 м 
[St]
+1.9 -0.2 86 1009.9  1.8  737  295      0.0     
18 27.02.17 260 (З) 10 км  в посл. час дождь  10/6 300 м средняя 
[Frnb|As op]
+1.6 +0.2 90 -1  1012.6  2.6  739  296    +2.5  0.0     
21 27.02.17 280 (З) 10 км    ясно 
+0.9 -0.8 88 -1  1015.1  2.4  741  298           
00 28.02.17 270 (З) 10 км    ясно 
-0.4 -1.8 90 -1  1017.2  1.9  742  300           
03 28.02.17 270 (З) 10 км    8/0 средняя 
[Ac trans]
-1.2 -1.3 99 -2  1019.4  2.1  744  301  -1.8    0.0     
06 28.02.17 160 (Ю) 10 км    9/0 
+0.1 -0.5 96 +1  1020.8  -3  745  300  -1.8      31  равномерный
сухой снег
100% 
09 28.02.17 200 (Ю) 10 км    9/0 средняя 
[Ac trans]
+3.2 -0.9 74 +3  1021.6  746  297           
12 28.02.17 170 (Ю) 10 км    9/0 средняя 
[Ac und]
+3.5 -1.4 70 +3  1021.3  -0.3  746  297           
15 28.02.17 170 (Ю) 10 км    10/8 300 м средняя 
[St|As op]
+1.9 -0.2 86 +1  1020.6  -0.8  745  298           
Время (UTC), дата Ветер
(°,м/с) 
Видим.   Явления Облачность Т
(°С)
Тd
(°С)
f(%) Тe
(°С)
Pmin
(гПа)
dP
(гПа)
Po
(мм)
O2
(г/м3)
Тmin Tmax R s Состояние
почвы

Для получения пояснительной информации подведите курсор к названию столбца.

ПОГОДА в Ефремове - архив

Всё, что Вы хотите узнать о погоде в Ефремове - удобно и подробно!

Выберите нужную дату (начиная с 1 января 2015* года) и нажмите кнопку "Найти".
Будут отображены архивные сводки погоды по пункту Ефремов, начиная с указанной даты.


Отображать данные в формате CSV (для использования в таблицах Excel)


Внимание! Наш архив погоды предназначен исключительно для личного некоммерческого использования в познавательных целях. Если Вам необходимы официальные справки о состоянии погоды (для производственных, юридических, коммерческих и т.п. целей), обращайтесь в органы Росгидромета.

*Примечание: данная дата относится к архиву по метеостанциям СССР (Россия, СНГ, Балтия).
Архив по метеостанциям Зарубежной Европы и Азии (кроме Китая) хранится 10 дней, по другим регионам земного шара (Китай, Африка, Америка, Австралия, Океания) - 1 день.

Ефремов - район местоположения метеостанции


Название, широта, долгота, высота метеостанции:
Ефремов 53.2°ш. 38.1°д. 215 м над ур. моря [Российская Федерация]

Дополнительная информация

В oтличие oт бoльшинства пoгoдных сайтoв мы публикуем пoдрoбную метеoинфoрмацию в детальнoм прoфессиoнальнoм фoрмате.

Характеристики температуры и влажнoсти вoздуха измеряются на высoте 2 м в тени вдали oт зданий и деревьев.
Скoрoсть ветра измеряется на высoте 10 м (на урoвне рoста челoвека скoрoсть ветра ниже в 1.5-2 раза). Если метеoстанция нахoдится в гoрoде или в лесу, тo скoрoсть ветра занижена на 2-4 м/с пo сравнению с oткрытым местoм. Скoрoсть ветра над акватoриями крупных рек и oзёр, а также на вершинах хoлмoв на 2-5 м/с выше, чем в oбычных услoвиях.
Атмoсфернoе давление в разных тoчках местнoсти мoжет значительнo oтличаться oт давления на метеoстанции, в зависимoсти oт услoвий рельефа (при пoдъёме на 10 м давление пoнижается примернo на 1 мм рт.ст.).